Weather History for Valparaiso, FL

Change the Weather History Date:

Tuesday, December 11, 2012

  Actual Average Record
Temperature  
Mean Temperature 50 °F -  
Max Temperature 57 °F 65 °F 78 °F (1961)
Min Temperature 43 °F 41 °F 23 °F (1968)
Degree Days  
Heating Degree Days 14    
Moisture  
Dew Point 43 °F    
Average Humidity 79    
Maximum Humidity 93    
Minimum Humidity 70    
Precipitation  
Precipitation 0.11 in - - ()
Sea Level Pressure  
Sea Level Pressure 30.03 in    
Wind  
Wind Speed 12 mph (North)    
Max Wind Speed 16 mph    
Max Gust Speed 18 mph    
Visibility 10 miles    
Events Rain    
Averages and records for this station are not official NWS values.
T = Trace of Precipitation, MM = Missing Value Source: NWS Daily Summary

Daily Weather History Graph

Daily Weather History Graph

Search for Another Location

Airport:

Trip Planner

Search our weather history database for the weather conditions in past years. The results will help you decide how hot, cold, wet, or windy it might be!

Date:

Astronomy

Dec. 11, 2012 Rise Set
Actual Time 6:33 AM CST 4:45 PM CST
Civil Twilight 6:06 AM CST 5:12 PM CST
Nautical Twilight 5:36 AM CST 5:42 PM CST
Astronomical Twilight 5:07 AM CST 6:11 PM CST
Moon 4:31 AM CST (12/11) 3:21 PM CST (12/11)
Length of Visible Light 11h 05m
Length of Day
10h 12m
Waning Crescent, 4% of the Moon is Illuminated
Dec 11
Waning Crescent
Dec 13
New
Dec 19
First Quarter
Dec 28
Full
Jan 4
Last Quarter

Hourly Weather History & Observations

Time (CST) Temp. Windchill Dew Point Humidity Pressure Visibility Wind Dir Wind Speed Gust Speed Precip Events Conditions
12:43 AM 57.2 °F - 53.6 °F 88% 29.89 in 10.0 mi NNW 16.1 mph - N/A   Light Drizzle
12:57 AM 56.3 °F - 53.2 °F 89% 29.91 in 10.0 mi North 11.5 mph - N/A   Overcast
1:55 AM 54.5 °F - 51.1 °F 88% 29.89 in 10.0 mi North 12.7 mph - N/A   Overcast
2:57 AM 53.2 °F - 49.3 °F 86% 29.91 in 10.0 mi North 10.4 mph - N/A   Overcast
3:57 AM 52.0 °F - 47.8 °F 86% 29.92 in 10.0 mi NNW 10.4 mph - N/A   Overcast
4:58 AM 50.5 °F - 46.6 °F 86% 29.94 in 10.0 mi NNW 12.7 mph - N/A   Overcast
5:34 AM 50.0 °F - 42.8 °F 76% 29.94 in 10.0 mi North 11.5 mph - N/A   Overcast
5:56 AM 49.8 °F - 43.3 °F 78% 29.98 in 10.0 mi North 12.7 mph - N/A   Overcast
6:58 AM 49.1 °F - 43.0 °F 79% 30.01 in 10.0 mi North 12.7 mph 18.4 mph N/A   Overcast
7:31 AM 48.2 °F - 42.8 °F 82% 30.00 in 10.0 mi North 10.4 mph - N/A   Overcast
7:53 AM 48.2 °F - 42.8 °F 82% 30.01 in 10.0 mi North 12.7 mph - N/A   Overcast
7:55 AM 48.9 °F - 43.3 °F 81% 30.03 in 10.0 mi North 12.7 mph - N/A   Overcast
8:55 AM 49.6 °F - 43.3 °F 79% 30.04 in 10.0 mi North 12.7 mph - N/A   Overcast
9:24 AM 50.0 °F - 42.8 °F 76% 30.03 in 10.0 mi North 11.5 mph - N/A   Mostly Cloudy
9:55 AM 50.5 °F - 43.3 °F 76% 30.04 in 10.0 mi North 11.5 mph - N/A   Mostly Cloudy
10:55 AM 50.0 °F - 42.8 °F 76% 30.06 in 10.0 mi North 11.5 mph - N/A   Overcast
11:55 AM 51.8 °F - 42.8 °F 71% 30.04 in 10.0 mi North 12.7 mph - N/A   Overcast
12:55 PM 52.0 °F - 42.8 °F 71% 30.04 in 10.0 mi North 10.4 mph - N/A   Overcast
1:55 PM 51.1 °F - 42.6 °F 73% 30.01 in 10.0 mi North 10.4 mph - N/A   Overcast
2:44 PM 50.0 °F - 42.8 °F 76% 30.01 in 10.0 mi North 10.4 mph - N/A   Light Drizzle
2:55 PM 50.2 °F - 42.6 °F 75% 30.04 in 10.0 mi North 9.2 mph - 0.00 in   Light Drizzle
3:29 PM 50.0 °F - 42.8 °F 76% 30.03 in 10.0 mi North 8.1 mph - N/A   Overcast
3:45 PM 50.0 °F - 41.0 °F 71% 30.03 in 10.0 mi North 11.5 mph - N/A   Overcast
3:55 PM 49.5 °F - 41.5 °F 74% 30.05 in 10.0 mi North 11.5 mph - 0.00 in   Overcast
4:55 PM 48.9 °F - 40.6 °F 73% 30.05 in 10.0 mi North 10.4 mph - N/A   Overcast
5:55 PM 48.4 °F - 39.7 °F 72% 30.06 in 10.0 mi North 13.8 mph - N/A   Overcast
6:55 PM 48.0 °F - 38.5 °F 70% 30.12 in 10.0 mi NNW 10.4 mph - N/A   Overcast
7:55 PM 47.1 °F - 38.7 °F 72% 30.14 in 10.0 mi North 11.5 mph - N/A   Overcast
8:10 PM 46.4 °F 41.9 °F 37.4 °F 71% 30.13 in 10.0 mi North 9.2 mph - N/A Rain Light Rain
8:55 PM 45.5 °F 40.8 °F 39.9 °F 81% 30.14 in 10.0 mi North 9.2 mph - 0.00 in Rain Light Rain
9:55 PM 44.4 °F 39.5 °F 41.2 °F 88% 30.14 in 10.0 mi North 9.2 mph - 0.04 in Rain Light Rain
10:55 PM 44.2 °F 39.2 °F 41.7 °F 91% 30.14 in 5.0 mi NNE 9.2 mph - 0.04 in Rain Light Rain
11:58 PM 43.7 °F 39.7 °F 41.9 °F 93% 30.13 in 10.0 mi NNE 6.9 mph - 0.03 in   Overcast